Location: Banff
(51.1667°N, 115.5667°W)
Time: 15:49:02
(UTC+00:00)

Altair - Pass Details

Date: 28 November 2020
Orbit: 1501 x 1682 km, 47.2° (Epoch: 15 January)

Event Time Altitude Azimuth Distance (km) Brightness Sun altitude
Rises 02:52:46 0° 192° (SSW) 4,726 10.2 -29.3°
Reaches altitude 10° 02:56:46 10° 178° (S) 3,718 9.5 -29.9°
Enters shadow 02:59:47 17° 161° (SSE) 3,143 8.9 -30.4°
